Regional Weather Roundup
Issued by NWS

Home | Current Version | Previous Version | Text Only | Print | Product List | Glossary Off
Versions: 1 2 3 4 5 6 7 8 9 10 11 12 13 14 15 16 17 18 19 20 21 22 23 24 25 26 27 28 29 30 31 32 33 34 35 36 37 38 39 40 41 42 43 44 45 46 47 48 49 50

000
ASUS43 KBIS 291202
RWRND

NORTH DAKOTA REGIONAL WEATHER ROUNDUP
NATIONAL WEATHER SERVICE BISMARCK ND
700 AM CDT SUN MAY 29 2016

NOTE: "FAIR" INDICATES FEW OR NO CLOUDS BELOW 12,000 FEET WITH NO
SIGNIFICANT WEATHER AND/OR OBSTRUCTIONS TO VISIBILITY.


NDZ001>003-009>011-017-291300-
NORTHWEST NORTH DAKOTA

CITY           SKY/WX    TMP DP  RH WIND       PRES   REMARKS
WILLISTON      CLEAR     45  43  93 CALM      30.00R
6HR MIN TEMP:  41; 6HR MAX TEMP:  49;

MINOT          CLEAR     54  51  90 SW9       29.96R
$$

NDZ018>021-031>035-040>046-291300-
SOUTHWEST NORTH DAKOTA

CITY           SKY/WX    TMP DP  RH WIND       PRES   REMARKS
BISMARCK       CLEAR     50  50 100 SW3       30.01R
6HR MIN TEMP:  45; 6HR MAX TEMP:  54;

DICKINSON      PTCLDY    47  43  86 W7        30.02R
GARRISON         N/A     49  48  97 W6        29.99R
6HR MIN TEMP:  47; 6HR MAX TEMP:  53;

HETTINGER ARPT FOG       41  40  96 CALM      30.06R VSB<1/4
$$

NDZ004>008-012>016-024-026-027-054-291300-
NORTHEAST NORTH DAKOTA

CITY           SKY/WX    TMP DP  RH WIND       PRES   REMARKS
GRAND FORKS    CLOUDY    59  57  93 NW7       29.91R
DEVILS LAKE    CLOUDY    57  56  96 W5        29.95R FOG
$$

NDZ022-023-025-028>030-036>039-047>053-291300-
SOUTHEAST NORTH DAKOTA

CITY           SKY/WX    TMP DP  RH WIND       PRES   REMARKS
FARGO          PTSUNNY   57  55  93 W6        29.91R FOG
6HR MIN TEMP:  56; 6HR MAX TEMP:  62; 6HR PCP: TRACE;

JAMESTOWN      SUNNY     56  55  97 W8        29.95R FOG
$$





USA.gov is the U.S. government's official web portal to all federal, state and local government web resources and services.